This is the latest recevied weather packets stored in our database for station/object W7TRD. If no packets are shown the sender has not sent any weather packets the latest 1 day(s).
| Time | Temp. | Humidity | Pressure | Rain* | Wind** | Luminosity | Snow |
|---|---|---|---|---|---|---|---|
| 1777999767 | 13.89° C | 88% | 1017.4 hPa | 0 mm | 0 m/s | 186 W/m² | - |
| 1777999464 | 13.89° C | 88% | 1017.4 hPa | 0 mm | 0 m/s | 180 W/m² | - |
| 1777999162 | 13.89° C | 90% | 1017.3 hPa | 0 mm | 0 m/s | 152 W/m² | - |
| 1777998861 | 13.33° C | 89% | 1017.4 hPa | 0 mm | 0.45 m/s, 158° | 102 W/m² | - |
| 1777998560 | 13.33° C | 91% | 1017.4 hPa | 0 mm | 0 m/s | 117 W/m² | - |
| 1777998255 | 12.78° C | 92% | 1017.4 hPa | 0 mm | 0 m/s | 131 W/m² | - |
| 1777997952 | 12.78° C | 93% | 1017.6 hPa | 0 mm | 0.45 m/s, 160° | 116 W/m² | - |
| 1777997649 | 12.78° C | 93% | 1017.1 hPa | 0 mm | 0 m/s | 81 W/m² | - |
| 1777997347 | 12.78° C | 93% | 1017.4 hPa | 0 mm | 0 m/s | 71 W/m² | - |
| 1777997044 | 12.78° C | 94% | 1017.4 hPa | 0 mm | 0 m/s | 75 W/m² | - |
| 1777996741 | 12.78° C | 94% | 1017.5 hPa | 0 mm | 0 m/s | 70 W/m² | - |
| 1777996436 | 12.78° C | 94% | 1017.3 hPa | 0 mm | 0.45 m/s, 177° | 63 W/m² | - |
| 1777996134 | 12.78° C | 94% | 1017 hPa | 0 mm | 0 m/s | 90 W/m² | - |
| 1777995830 | 12.78° C | 95% | 1017 hPa | 0 mm | 0 m/s | 76 W/m² | - |
| 1777995526 | 12.78° C | 95% | 1017 hPa | 0 mm | 0 m/s | 76 W/m² | - |
| 1777995223 | 12.22° C | 96% | 1017 hPa | 0 mm | 0 m/s | 73 W/m² | - |
| 1777994920 | 12.22° C | 96% | 1017.3 hPa | 0 mm | 0 m/s | 58 W/m² | - |
| 1777994618 | 12.22° C | 96% | 1016.9 hPa | 0 mm | 0 m/s | 47 W/m² | - |
| 1777994312 | 12.22° C | 96% | 1017 hPa | 0 mm | 0 m/s | 34 W/m² | - |
| 1777994009 | 12.22° C | 97% | 1016.9 hPa | 0 mm | 0 m/s | 33 W/m² | - |
| 1777993706 | 12.22° C | 97% | 1017 hPa | 0 mm | 0 m/s | 35 W/m² | - |
| 1777993403 | 12.22° C | 97% | 1016.8 hPa | 0 mm | 0 m/s | 42 W/m² | - |
| 1777993103 | 12.22° C | 97% | 1016.9 hPa | 0 mm | 0 m/s | 46 W/m² | - |
| 1777992801 | 12.22° C | 98% | 1017.1 hPa | 0 mm | 0 m/s | 43 W/m² | - |
| 1777992498 | 12.22° C | 98% | 1016.9 hPa | 0 mm | 0 m/s | 36 W/m² | - |
* Rain latest hour (hover to see other rain measurements)
** Current wind speed in m/s (hover to see current wind gust speed)